Heat Index [SAI AWOS/ASOS Display]_________FAA Disclaimer: "Not for use in aviation at this time______________" Untitled Document
Auglaize County Neil Armstrong Airport (AXV)
260
08:38
16/12/07
08
N/A
N/A
30.04
N/A
912
30(F), -1(C)
28(F), -2(C)
22 F
93%
CLR
7
N/A
N/A
N/A
08:38 zulu Wind 260 at 08 Knots, Altimeter 30.04
METAR KAXV 070838Z AUTO 26008KT 7SM CLR M01/M02 A3004 A02
METAR:
FAA Disclaimer--Advisory Use ONLY, not for flight info-- 3/04/2009: Welcome to the Neil Armstong AXV Graphical AWOS Display, if you find this information useful, please call the airport manager at 419-753-2810. New URL for AWOS smartphone display is http://www.saiawos2.com/AXV
INFO:
Wind Direction:
Wind Speed:
Wind Gust:
Wind Variable:
Altimeter:
Dens Alt:
Elev:
Temp:
Dwpt:
Wind Chill
Rel Humidity:
Ceiling:
Visibility:
Prsnt Wea:
PCPN:
Remarks:
How to read the WebPage